Year,Month,Day,Hour,Minute,Value (Times are PST for temperature in C)
2013,10,09,00,00,6.00
2013,10,09,00,01,5.90
2013,10,09,00,02,5.90
2013,10,09,00,03,5.90
2013,10,09,00,04,5.90
2013,10,09,00,05,5.90
2013,10,09,00,06,5.90
2013,10,09,00,07,5.90
2013,10,09,00,08,5.90
2013,10,09,00,09,5.90
2013,10,09,00,10,5.90
2013,10,09,00,11,5.90
2013,10,09,00,12,5.90
2013,10,09,00,13,5.80
2013,10,09,00,14,5.80
2013,10,09,00,15,5.80
2013,10,09,00,16,5.80
2013,10,09,00,17,5.80
2013,10,09,00,18,5.80
2013,10,09,00,19,5.70
2013,10,09,00,20,5.70
2013,10,09,00,21,5.70
2013,10,09,00,22,5.70
2013,10,09,00,23,5.70
2013,10,09,00,24,5.70
2013,10,09,00,25,5.70
2013,10,09,00,26,5.70
2013,10,09,00,27,5.70
2013,10,09,00,28,5.70
2013,10,09,00,29,5.70
2013,10,09,00,30,5.70
2013,10,09,00,31,5.70
2013,10,09,00,32,5.70
2013,10,09,00,33,5.70
2013,10,09,00,34,5.70
2013,10,09,00,35,5.70
2013,10,09,00,36,5.70
2013,10,09,00,37,5.70
2013,10,09,00,38,5.70
2013,10,09,00,39,5.70
2013,10,09,00,40,5.70
2013,10,09,00,41,5.70
2013,10,09,00,42,5.70
2013,10,09,00,43,5.70
2013,10,09,00,44,5.60
2013,10,09,00,45,5.60
2013,10,09,00,46,5.60
2013,10,09,00,47,5.60
2013,10,09,00,48,5.60
2013,10,09,00,49,5.60
2013,10,09,00,50,5.60
2013,10,09,00,51,5.60
2013,10,09,00,52,5.60
2013,10,09,00,53,5.50
2013,10,09,00,54,5.50
2013,10,09,00,55,5.50
2013,10,09,00,56,5.50
2013,10,09,00,57,5.50
2013,10,09,00,58,5.50
2013,10,09,00,59,5.40
2013,10,09,01,00,5.40
2013,10,09,01,01,5.40
2013,10,09,01,02,5.40
2013,10,09,01,03,5.40
2013,10,09,01,04,5.30
2013,10,09,01,05,5.30
2013,10,09,01,06,5.30
2013,10,09,01,07,5.30
2013,10,09,01,08,5.30
2013,10,09,01,09,5.20
2013,10,09,01,10,5.20
2013,10,09,01,11,5.20
2013,10,09,01,12,5.30
2013,10,09,01,13,5.30
2013,10,09,01,14,5.30
2013,10,09,01,15,5.30
2013,10,09,01,16,5.30
2013,10,09,01,17,5.30
2013,10,09,01,18,5.20
2013,10,09,01,19,5.20
2013,10,09,01,20,5.20
2013,10,09,01,21,5.20
2013,10,09,01,22,5.20
2013,10,09,01,23,5.20
2013,10,09,01,24,5.20
2013,10,09,01,25,5.20
2013,10,09,01,26,5.20
2013,10,09,01,27,5.20
2013,10,09,01,28,5.20
2013,10,09,01,29,5.30
2013,10,09,01,30,5.30
2013,10,09,01,31,5.30
2013,10,09,01,32,5.30
2013,10,09,01,33,5.30
2013,10,09,01,34,5.30
2013,10,09,01,35,5.30
2013,10,09,01,36,5.30
2013,10,09,01,37,5.30
2013,10,09,01,38,5.30
2013,10,09,01,39,5.30
2013,10,09,01,40,5.30
2013,10,09,01,41,5.30
2013,10,09,01,42,5.30
2013,10,09,01,43,5.30
2013,10,09,01,44,5.30
2013,10,09,01,45,5.20
2013,10,09,01,46,5.20
2013,10,09,01,47,5.20
2013,10,09,01,48,5.20
2013,10,09,01,49,5.20
2013,10,09,01,50,5.30
2013,10,09,01,51,5.30
2013,10,09,01,52,5.30
2013,10,09,01,53,5.40
2013,10,09,01,54,5.40
2013,10,09,01,55,5.50
2013,10,09,01,56,5.50
2013,10,09,01,57,5.60
2013,10,09,01,58,5.60
2013,10,09,01,59,5.60
2013,10,09,02,00,5.70
2013,10,09,02,01,5.70
2013,10,09,02,02,5.70
2013,10,09,02,03,5.80
2013,10,09,02,04,5.80
2013,10,09,02,05,5.90
2013,10,09,02,06,5.90
2013,10,09,02,07,5.90
2013,10,09,02,08,6.00
2013,10,09,02,09,6.10
2013,10,09,02,10,6.10
2013,10,09,02,11,6.20
2013,10,09,02,12,6.20
2013,10,09,02,13,6.30
2013,10,09,02,14,6.40
2013,10,09,02,15,6.40
2013,10,09,02,16,6.40
2013,10,09,02,17,6.50
2013,10,09,02,18,6.50
2013,10,09,02,19,6.50
2013,10,09,02,20,6.60
2013,10,09,02,21,6.60
2013,10,09,02,22,6.60
2013,10,09,02,23,6.60
2013,10,09,02,24,6.70
2013,10,09,02,25,6.70
2013,10,09,02,26,6.70
2013,10,09,02,27,6.80
2013,10,09,02,28,6.80
2013,10,09,02,29,6.80
2013,10,09,02,30,6.90
2013,10,09,02,31,6.90
2013,10,09,02,32,6.90
2013,10,09,02,33,7.00
2013,10,09,02,34,7.00
2013,10,09,02,35,7.10
2013,10,09,02,36,7.10
2013,10,09,02,37,7.10
2013,10,09,02,38,7.10
2013,10,09,02,39,7.10
2013,10,09,02,40,7.10
2013,10,09,02,41,7.20
2013,10,09,02,42,7.20
2013,10,09,02,43,7.20
2013,10,09,02,44,7.20
2013,10,09,02,45,7.20
2013,10,09,02,46,7.20
2013,10,09,02,47,7.30
2013,10,09,02,48,7.30
2013,10,09,02,49,7.30
2013,10,09,02,50,7.40
2013,10,09,02,51,7.40
2013,10,09,02,52,7.40
2013,10,09,02,53,7.40
2013,10,09,02,54,7.40
2013,10,09,02,55,7.40
2013,10,09,02,56,7.40
2013,10,09,02,57,7.40
2013,10,09,02,58,7.40
2013,10,09,02,59,7.50
2013,10,09,03,00,7.50
2013,10,09,03,01,7.50
2013,10,09,03,02,7.50
2013,10,09,03,03,7.50
2013,10,09,03,04,7.50
2013,10,09,03,05,7.50
2013,10,09,03,06,7.50
2013,10,09,03,07,7.60
2013,10,09,03,08,7.50
2013,10,09,03,09,7.60
2013,10,09,03,10,7.60
2013,10,09,03,11,7.60
2013,10,09,03,12,7.70
2013,10,09,03,13,7.70
2013,10,09,03,14,7.70
2013,10,09,03,15,7.70
2013,10,09,03,16,7.70
2013,10,09,03,17,7.80
2013,10,09,03,18,7.80
2013,10,09,03,19,7.80
2013,10,09,03,20,7.90
2013,10,09,03,21,7.90
2013,10,09,03,22,7.90
2013,10,09,03,23,7.90
2013,10,09,03,24,7.80
2013,10,09,03,25,7.70
2013,10,09,03,26,7.70
2013,10,09,03,27,7.60
2013,10,09,03,28,7.60
2013,10,09,03,29,7.60
2013,10,09,03,30,7.50
2013,10,09,03,31,7.50
2013,10,09,03,32,7.40
2013,10,09,03,33,7.40
2013,10,09,03,34,7.30
2013,10,09,03,35,7.30
2013,10,09,03,36,7.20
2013,10,09,03,37,7.20
2013,10,09,03,38,7.10
2013,10,09,03,39,7.10
2013,10,09,03,40,7.00
2013,10,09,03,41,7.00
2013,10,09,03,42,6.90
2013,10,09,03,43,6.90
2013,10,09,03,44,6.90
2013,10,09,03,45,6.80
2013,10,09,03,46,6.80
2013,10,09,03,47,6.80
2013,10,09,03,48,6.80
2013,10,09,03,49,6.70
2013,10,09,03,50,6.70
2013,10,09,03,51,6.70
2013,10,09,03,52,6.70
2013,10,09,03,53,6.60
2013,10,09,03,54,6.60
2013,10,09,03,55,6.60
2013,10,09,03,56,6.60
2013,10,09,03,57,6.50
2013,10,09,03,58,6.40
2013,10,09,03,59,6.40
2013,10,09,04,00,6.30
2013,10,09,04,01,6.30
2013,10,09,04,02,6.30
2013,10,09,04,03,6.20
2013,10,09,04,04,6.20
2013,10,09,04,05,6.10
2013,10,09,04,06,6.10
2013,10,09,04,07,6.10
2013,10,09,04,08,6.10
2013,10,09,04,09,6.10
2013,10,09,04,10,6.10
2013,10,09,04,11,6.00
2013,10,09,04,12,6.00
2013,10,09,04,13,6.00
2013,10,09,04,14,5.90
2013,10,09,04,15,5.90
2013,10,09,04,16,5.90
2013,10,09,04,17,5.90
2013,10,09,04,18,5.90
2013,10,09,04,19,5.90
2013,10,09,04,20,5.90
2013,10,09,04,21,5.90
2013,10,09,04,22,5.90
2013,10,09,04,23,5.90
2013,10,09,04,24,5.80
2013,10,09,04,25,5.80
2013,10,09,04,26,5.80
2013,10,09,04,27,5.80
2013,10,09,04,28,5.80
2013,10,09,04,29,5.70
2013,10,09,04,30,5.70
2013,10,09,04,31,5.70
2013,10,09,04,32,5.70
2013,10,09,04,33,5.60
2013,10,09,04,34,5.60
2013,10,09,04,35,5.60
2013,10,09,04,36,5.60
2013,10,09,04,37,5.60
2013,10,09,04,38,5.60
2013,10,09,04,39,5.50
2013,10,09,04,40,5.50
2013,10,09,04,41,5.50
2013,10,09,04,42,5.50
2013,10,09,04,43,5.40
2013,10,09,04,44,5.40
2013,10,09,04,45,5.40
2013,10,09,04,46,5.40
2013,10,09,04,47,5.30
2013,10,09,04,48,5.30
2013,10,09,04,49,5.30
2013,10,09,04,50,5.30
2013,10,09,04,51,5.30
2013,10,09,04,52,5.30
2013,10,09,04,53,5.30
2013,10,09,04,54,5.30
2013,10,09,04,55,5.30
2013,10,09,04,56,5.30
2013,10,09,04,57,5.30
2013,10,09,04,58,5.30
2013,10,09,04,59,5.30
2013,10,09,05,00,5.20
2013,10,09,05,01,5.20
2013,10,09,05,02,5.20
2013,10,09,05,03,5.20
2013,10,09,05,04,5.20
2013,10,09,05,05,5.20
2013,10,09,05,06,5.10
2013,10,09,05,07,5.10
2013,10,09,05,08,5.10
2013,10,09,05,09,5.10
2013,10,09,05,10,5.10
2013,10,09,05,11,5.10
2013,10,09,05,12,5.10
2013,10,09,05,13,5.10
2013,10,09,05,14,5.10
2013,10,09,05,15,5.10
2013,10,09,05,16,5.10
2013,10,09,05,17,5.10
2013,10,09,05,18,5.10
2013,10,09,05,19,5.10
2013,10,09,05,20,5.10
2013,10,09,05,21,5.10
2013,10,09,05,22,5.10
2013,10,09,05,23,5.10
2013,10,09,05,24,5.10
2013,10,09,05,25,5.10
2013,10,09,05,26,5.10
2013,10,09,05,27,5.10
2013,10,09,05,28,5.10
2013,10,09,05,29,5.10
2013,10,09,05,30,5.10
2013,10,09,05,31,5.10
2013,10,09,05,32,5.10
2013,10,09,05,33,5.10
2013,10,09,05,34,5.10
2013,10,09,05,35,5.10
2013,10,09,05,36,5.10
2013,10,09,05,37,5.10
2013,10,09,05,38,5.10
2013,10,09,05,39,5.10
2013,10,09,05,40,5.00
2013,10,09,05,41,5.00
2013,10,09,05,42,5.00
2013,10,09,05,43,5.00
2013,10,09,05,44,4.90
2013,10,09,05,45,4.90
2013,10,09,05,46,4.90
2013,10,09,05,47,4.90
2013,10,09,05,48,4.90
2013,10,09,05,49,4.90
2013,10,09,05,50,4.80
2013,10,09,05,51,4.80
2013,10,09,05,52,4.80
2013,10,09,05,53,4.80
2013,10,09,05,54,4.80
2013,10,09,05,55,4.80
2013,10,09,05,56,4.80
2013,10,09,05,57,4.80
2013,10,09,05,58,4.80
2013,10,09,05,59,4.80
2013,10,09,06,00,4.80
2013,10,09,06,01,4.80
2013,10,09,06,02,4.80
2013,10,09,06,03,4.80
2013,10,09,06,04,4.80
2013,10,09,06,05,4.80
2013,10,09,06,06,4.80
2013,10,09,06,07,4.80
2013,10,09,06,08,4.70
2013,10,09,06,09,4.70
2013,10,09,06,10,4.70
2013,10,09,06,11,4.70
2013,10,09,06,12,4.70
2013,10,09,06,13,4.60
2013,10,09,06,14,4.60
2013,10,09,06,15,4.60
2013,10,09,06,16,4.60
2013,10,09,06,17,4.60
2013,10,09,06,18,4.60
2013,10,09,06,19,4.60
2013,10,09,06,20,4.50
2013,10,09,06,21,4.50
2013,10,09,06,22,4.50
2013,10,09,06,23,4.50
2013,10,09,06,24,4.50
2013,10,09,06,25,4.40
2013,10,09,06,26,4.40
2013,10,09,06,27,4.40
2013,10,09,06,28,4.40
2013,10,09,06,29,4.40
2013,10,09,06,30,4.30
2013,10,09,06,31,4.30
2013,10,09,06,32,4.30
2013,10,09,06,33,4.30
2013,10,09,06,34,4.30
2013,10,09,06,35,4.30
2013,10,09,06,36,4.30
2013,10,09,06,37,4.30
2013,10,09,06,38,4.20
2013,10,09,06,39,4.20
2013,10,09,06,40,4.20
2013,10,09,06,41,4.20
2013,10,09,06,42,4.20
2013,10,09,06,43,4.10
2013,10,09,06,44,4.10
2013,10,09,06,45,4.10
2013,10,09,06,46,4.10
2013,10,09,06,47,4.10
2013,10,09,06,48,4.10
2013,10,09,06,49,4.10
2013,10,09,06,50,4.10
2013,10,09,06,51,4.10
2013,10,09,06,52,4.00
2013,10,09,06,53,4.00
2013,10,09,06,54,4.00
2013,10,09,06,55,4.00
2013,10,09,06,56,4.00
2013,10,09,06,57,4.00
2013,10,09,06,58,4.00
2013,10,09,06,59,4.00
2013,10,09,07,00,4.00
2013,10,09,07,01,4.00
2013,10,09,07,02,4.00
2013,10,09,07,03,4.00
2013,10,09,07,04,4.00
2013,10,09,07,05,4.00
2013,10,09,07,06,4.00
2013,10,09,07,07,4.00
2013,10,09,07,08,4.00
2013,10,09,07,09,4.00
2013,10,09,07,10,4.00
2013,10,09,07,11,4.00
2013,10,09,07,12,4.00
2013,10,09,07,13,4.10
2013,10,09,07,14,4.10
2013,10,09,07,15,4.10
2013,10,09,07,16,4.10
2013,10,09,07,17,4.10
2013,10,09,07,18,4.10
2013,10,09,07,19,4.10
2013,10,09,07,20,4.10
2013,10,09,07,21,4.10
2013,10,09,07,22,4.10
2013,10,09,07,23,4.20
2013,10,09,07,24,4.20
2013,10,09,07,25,4.20
2013,10,09,07,26,4.20
2013,10,09,07,27,4.20
2013,10,09,07,28,4.20
2013,10,09,07,29,4.20
2013,10,09,07,30,4.20
2013,10,09,07,31,4.20
2013,10,09,07,32,4.20
2013,10,09,07,33,4.20
2013,10,09,07,34,4.30
2013,10,09,07,35,4.30
2013,10,09,07,36,4.30
2013,10,09,07,37,4.30
2013,10,09,07,38,4.30
2013,10,09,07,39,4.30
2013,10,09,07,40,4.30
2013,10,09,07,41,4.30
2013,10,09,07,42,4.30
2013,10,09,07,43,4.30
2013,10,09,07,44,4.30
2013,10,09,07,45,4.40
2013,10,09,07,46,4.40
2013,10,09,07,47,4.40
2013,10,09,07,48,4.40
2013,10,09,07,49,4.40
2013,10,09,07,50,4.40
2013,10,09,07,51,4.50
2013,10,09,07,52,4.50
2013,10,09,07,53,4.50
2013,10,09,07,54,4.60
2013,10,09,07,55,4.60
2013,10,09,07,56,4.60
2013,10,09,07,57,4.70
2013,10,09,07,58,4.70
2013,10,09,07,59,4.70
2013,10,09,08,00,4.70
2013,10,09,08,01,4.70
2013,10,09,08,02,4.70
2013,10,09,08,03,4.80
2013,10,09,08,04,4.80
2013,10,09,08,05,4.80
2013,10,09,08,06,4.80
2013,10,09,08,07,4.80
2013,10,09,08,08,4.80
2013,10,09,08,09,4.80
2013,10,09,08,10,4.80
2013,10,09,08,11,4.80
2013,10,09,08,12,4.90
2013,10,09,08,13,4.90
2013,10,09,08,14,4.90
2013,10,09,08,15,5.00
2013,10,09,08,16,5.00
2013,10,09,08,17,5.00
2013,10,09,08,18,5.10
2013,10,09,08,19,5.10
2013,10,09,08,20,5.20
2013,10,09,08,21,5.20
2013,10,09,08,22,5.30
2013,10,09,08,23,5.30
2013,10,09,08,24,5.30
2013,10,09,08,25,5.40
2013,10,09,08,26,5.40
2013,10,09,08,27,5.40
2013,10,09,08,28,5.40
2013,10,09,08,29,5.50
2013,10,09,08,30,5.50
2013,10,09,08,31,5.50
2013,10,09,08,32,5.60
2013,10,09,08,33,5.60
2013,10,09,08,34,5.60
2013,10,09,08,35,5.70
2013,10,09,08,36,5.70
2013,10,09,08,37,5.70
2013,10,09,08,38,5.80
2013,10,09,08,39,5.80
2013,10,09,08,40,5.80
2013,10,09,08,41,5.80
2013,10,09,08,42,5.90
2013,10,09,08,43,5.90
2013,10,09,08,44,5.90
2013,10,09,08,45,6.00
2013,10,09,08,46,6.10
2013,10,09,08,47,6.10
2013,10,09,08,48,6.10
2013,10,09,08,49,6.20
2013,10,09,08,50,6.20
2013,10,09,08,51,6.20
2013,10,09,08,52,6.30
2013,10,09,08,53,6.30
2013,10,09,08,54,6.30
2013,10,09,08,55,6.40
2013,10,09,08,56,6.40
2013,10,09,08,57,6.40
2013,10,09,08,58,6.50
2013,10,09,08,59,6.50
2013,10,09,09,00,6.60
2013,10,09,09,01,6.60
2013,10,09,09,02,6.60
2013,10,09,09,03,6.70
2013,10,09,09,04,6.70
2013,10,09,09,05,6.70
2013,10,09,09,06,6.80
2013,10,09,09,07,6.80
2013,10,09,09,08,6.80
2013,10,09,09,09,6.90
2013,10,09,09,10,6.90
2013,10,09,09,11,6.90
2013,10,09,09,12,7.00
2013,10,09,09,13,7.00
2013,10,09,09,14,7.10
2013,10,09,09,15,7.10
2013,10,09,09,16,7.10
2013,10,09,09,17,7.20
2013,10,09,09,18,7.20
2013,10,09,09,19,7.20
2013,10,09,09,20,7.30
2013,10,09,09,21,7.30
2013,10,09,09,22,7.30
2013,10,09,09,23,7.40
2013,10,09,09,24,7.40
2013,10,09,09,25,7.50
2013,10,09,09,26,7.60
2013,10,09,09,27,7.60
2013,10,09,09,28,7.70
2013,10,09,09,29,7.70
2013,10,09,09,30,7.80
2013,10,09,09,31,7.80
2013,10,09,09,32,7.90
2013,10,09,09,33,7.90
2013,10,09,09,34,7.90
2013,10,09,09,35,8.00
2013,10,09,09,36,8.10
2013,10,09,09,37,8.10
2013,10,09,09,38,8.10
2013,10,09,09,39,8.20
2013,10,09,09,40,8.30
2013,10,09,09,41,8.30
2013,10,09,09,42,8.30
2013,10,09,09,43,8.40
2013,10,09,09,44,8.50
2013,10,09,09,45,8.50
2013,10,09,09,46,8.60
2013,10,09,09,47,8.60
2013,10,09,09,48,8.70
2013,10,09,09,49,8.70
2013,10,09,09,50,8.80
2013,10,09,09,51,8.80
2013,10,09,09,52,8.90
2013,10,09,09,53,8.90
2013,10,09,09,54,9.00
2013,10,09,09,55,9.10
2013,10,09,09,56,9.10
2013,10,09,09,57,9.20
2013,10,09,09,58,9.30
2013,10,09,09,59,9.30
2013,10,09,10,00,9.40
2013,10,09,10,01,9.50
2013,10,09,10,02,9.60
2013,10,09,10,03,9.60
2013,10,09,10,04,9.70
2013,10,09,10,05,9.70
2013,10,09,10,06,9.80
2013,10,09,10,07,9.80
2013,10,09,10,08,9.80
2013,10,09,10,09,9.80
2013,10,09,10,10,9.90
2013,10,09,10,11,9.90
2013,10,09,10,12,10.00
2013,10,09,10,13,10.10
2013,10,09,10,14,10.20
2013,10,09,10,15,10.20
2013,10,09,10,16,10.30
2013,10,09,10,17,10.40
2013,10,09,10,18,10.50
2013,10,09,10,19,10.60
2013,10,09,10,20,10.60
2013,10,09,10,21,10.70
2013,10,09,10,22,10.80
2013,10,09,10,23,10.90
2013,10,09,10,24,11.10
2013,10,09,10,25,11.20
2013,10,09,10,26,11.20
2013,10,09,10,27,11.20
2013,10,09,10,28,11.20
2013,10,09,10,29,11.20
2013,10,09,10,30,11.20
2013,10,09,10,31,11.30
2013,10,09,10,32,11.30
2013,10,09,10,33,11.30
2013,10,09,10,34,11.30
2013,10,09,10,35,11.30
2013,10,09,10,36,11.40
2013,10,09,10,37,11.40
2013,10,09,10,38,11.40
2013,10,09,10,39,11.40
2013,10,09,10,40,11.40
2013,10,09,10,41,11.50
2013,10,09,10,42,11.50
2013,10,09,10,43,11.50
2013,10,09,10,44,11.50
2013,10,09,10,45,11.50
2013,10,09,10,46,11.50
2013,10,09,10,47,11.50
2013,10,09,10,48,11.60
2013,10,09,10,49,11.60
2013,10,09,10,50,11.60
2013,10,09,10,51,11.60
2013,10,09,10,52,11.60
2013,10,09,10,53,11.60
2013,10,09,10,54,11.70
2013,10,09,10,55,11.70
2013,10,09,10,56,11.70
2013,10,09,10,57,11.70
2013,10,09,10,58,11.70
2013,10,09,10,59,11.70
2013,10,09,11,00,11.70
2013,10,09,11,01,11.70
2013,10,09,11,02,11.80
2013,10,09,11,03,11.80
2013,10,09,11,04,11.80
2013,10,09,11,05,11.90
2013,10,09,11,06,11.90
2013,10,09,11,07,11.90
2013,10,09,11,08,11.90
2013,10,09,11,09,11.90
2013,10,09,11,10,12.00
2013,10,09,11,11,12.00
2013,10,09,11,12,12.10
2013,10,09,11,13,12.10
2013,10,09,11,14,12.10
2013,10,09,11,15,12.10
2013,10,09,11,16,12.10
2013,10,09,11,17,12.10
2013,10,09,11,18,12.10
2013,10,09,11,19,12.10
2013,10,09,11,20,12.10
2013,10,09,11,21,12.20
2013,10,09,11,22,12.20
2013,10,09,11,23,12.20
2013,10,09,11,24,12.20
2013,10,09,11,25,12.20
2013,10,09,11,26,12.20
2013,10,09,11,27,12.20
2013,10,09,11,28,12.20
2013,10,09,11,29,12.20
2013,10,09,11,30,12.20
2013,10,09,11,31,12.30
2013,10,09,11,32,12.30
2013,10,09,11,33,12.30
2013,10,09,11,34,12.30
2013,10,09,11,35,12.40
2013,10,09,11,36,12.40
2013,10,09,11,37,12.40
2013,10,09,11,38,12.40
2013,10,09,11,39,12.40
2013,10,09,11,40,12.40
2013,10,09,11,41,12.40
2013,10,09,11,42,12.40
2013,10,09,11,43,12.40
2013,10,09,11,44,12.40
2013,10,09,11,45,12.40
2013,10,09,11,46,12.40
2013,10,09,11,47,12.40
2013,10,09,11,48,12.40
2013,10,09,11,49,12.50
2013,10,09,11,50,12.50
2013,10,09,11,51,12.60
2013,10,09,11,52,12.70
2013,10,09,11,53,12.80
2013,10,09,11,54,12.80
2013,10,09,11,55,12.90
2013,10,09,11,56,12.90
2013,10,09,11,57,12.90
2013,10,09,11,58,13.00
2013,10,09,11,59,13.00
2013,10,09,12,00,13.10
2013,10,09,12,01,13.10
2013,10,09,12,02,13.10
2013,10,09,12,03,13.20
2013,10,09,12,04,13.20
2013,10,09,12,05,13.30
2013,10,09,12,06,13.40
2013,10,09,12,07,13.50
2013,10,09,12,08,13.60
2013,10,09,12,09,13.80
2013,10,09,12,10,13.80
2013,10,09,12,11,13.90
2013,10,09,12,12,14.00
2013,10,09,12,13,14.10
2013,10,09,12,14,14.10
2013,10,09,12,15,14.10
2013,10,09,12,16,14.10
2013,10,09,12,17,14.10
2013,10,09,12,18,14.20
2013,10,09,12,19,14.20
2013,10,09,12,20,14.20
2013,10,09,12,21,14.30
2013,10,09,12,22,14.30
2013,10,09,12,23,14.30
2013,10,09,12,24,14.30
2013,10,09,12,25,14.30
2013,10,09,12,26,14.30
2013,10,09,12,27,14.30
2013,10,09,12,28,14.30
2013,10,09,12,29,14.30
2013,10,09,12,30,14.20
2013,10,09,12,31,14.20
2013,10,09,12,32,14.10
2013,10,09,12,33,14.10
2013,10,09,12,34,14.10
2013,10,09,12,35,14.00
2013,10,09,12,36,13.90
2013,10,09,12,37,13.80
2013,10,09,12,38,13.70
2013,10,09,12,39,13.60
2013,10,09,12,40,13.50
2013,10,09,12,41,13.40
2013,10,09,12,42,13.40
2013,10,09,12,43,13.30
2013,10,09,12,44,13.20
2013,10,09,12,45,13.10
2013,10,09,12,46,13.10
2013,10,09,12,47,13.00
2013,10,09,12,48,12.90
2013,10,09,12,49,12.80
2013,10,09,12,50,12.80
2013,10,09,12,51,12.80
2013,10,09,12,52,12.80
2013,10,09,12,53,12.70
2013,10,09,12,54,12.70
2013,10,09,12,55,12.70
2013,10,09,12,56,12.70
2013,10,09,12,57,12.70
2013,10,09,12,58,12.70
2013,10,09,12,59,12.70
2013,10,09,13,00,12.70
2013,10,09,13,01,12.70
2013,10,09,13,02,12.70
2013,10,09,13,03,12.70
2013,10,09,13,04,12.70
2013,10,09,13,05,12.70
2013,10,09,13,06,12.70
2013,10,09,13,07,12.70
2013,10,09,13,08,12.70
2013,10,09,13,09,12.70
2013,10,09,13,10,12.60
2013,10,09,13,11,12.70
2013,10,09,13,12,12.70
2013,10,09,13,13,12.70
2013,10,09,13,14,12.70
2013,10,09,13,15,12.70
2013,10,09,13,16,12.80
2013,10,09,13,17,12.80
2013,10,09,13,18,12.80
2013,10,09,13,19,12.90
2013,10,09,13,20,12.90
2013,10,09,13,21,12.90
2013,10,09,13,22,12.90
2013,10,09,13,23,12.90
2013,10,09,13,24,12.80
2013,10,09,13,25,12.80
2013,10,09,13,26,12.80
2013,10,09,13,27,12.80
2013,10,09,13,28,12.80
2013,10,09,13,29,12.90
2013,10,09,13,30,13.00
2013,10,09,13,31,13.10
2013,10,09,13,32,13.10
2013,10,09,13,33,13.20
2013,10,09,13,34,13.20
2013,10,09,13,35,13.30
2013,10,09,13,36,13.30
2013,10,09,13,37,13.30
2013,10,09,13,38,13.30
2013,10,09,13,39,13.30
2013,10,09,13,40,13.20
2013,10,09,13,41,13.20
2013,10,09,13,42,13.10
2013,10,09,13,43,13.00
2013,10,09,13,44,12.90
2013,10,09,13,45,12.80
2013,10,09,13,46,12.80
2013,10,09,13,47,12.70
2013,10,09,13,48,12.60
2013,10,09,13,49,12.60
2013,10,09,13,50,12.50
2013,10,09,13,51,12.40
2013,10,09,13,52,12.40
2013,10,09,13,53,12.30
2013,10,09,13,54,12.30
2013,10,09,13,55,12.20
2013,10,09,13,56,12.20
2013,10,09,13,57,12.10
2013,10,09,13,58,12.10
2013,10,09,13,59,12.00
2013,10,09,14,00,11.90
2013,10,09,14,01,11.90
2013,10,09,14,02,11.80
2013,10,09,14,03,11.80
2013,10,09,14,04,11.70
2013,10,09,14,05,11.70
2013,10,09,14,06,11.60
2013,10,09,14,07,11.60
2013,10,09,14,08,11.50
2013,10,09,14,09,11.50
2013,10,09,14,10,11.40
2013,10,09,14,11,11.40
2013,10,09,14,12,11.50
2013,10,09,14,13,11.50
2013,10,09,14,14,11.60
2013,10,09,14,15,11.60
2013,10,09,14,16,11.60
2013,10,09,14,17,11.50
2013,10,09,14,18,11.50
2013,10,09,14,19,11.50
2013,10,09,14,20,11.40
2013,10,09,14,21,11.40
2013,10,09,14,22,11.40
2013,10,09,14,23,11.40
2013,10,09,14,24,11.40
2013,10,09,14,25,11.40
2013,10,09,14,26,11.40
2013,10,09,14,27,11.40
2013,10,09,14,28,11.40
2013,10,09,14,29,11.50
2013,10,09,14,30,11.50
2013,10,09,14,31,11.60
2013,10,09,14,32,11.60
2013,10,09,14,33,11.70
2013,10,09,14,34,11.70
2013,10,09,14,35,11.80
2013,10,09,14,36,11.80
2013,10,09,14,37,11.80
2013,10,09,14,38,11.80
2013,10,09,14,39,11.90
2013,10,09,14,40,11.90
2013,10,09,14,41,12.00
2013,10,09,14,42,12.00
2013,10,09,14,43,12.10
2013,10,09,14,44,12.10
2013,10,09,14,45,12.20
2013,10,09,14,46,12.20
2013,10,09,14,47,12.20
2013,10,09,14,48,12.20
2013,10,09,14,49,12.20
2013,10,09,14,50,12.20
2013,10,09,14,51,12.20
2013,10,09,14,52,12.20
2013,10,09,14,53,12.20
2013,10,09,14,54,12.20
2013,10,09,14,55,12.20
2013,10,09,14,56,12.20
2013,10,09,14,57,12.20
2013,10,09,14,58,12.20
2013,10,09,14,59,12.20
2013,10,09,15,00,12.20
2013,10,09,15,01,12.20
2013,10,09,15,02,12.10
2013,10,09,15,03,12.10
2013,10,09,15,04,12.10
2013,10,09,15,05,12.00
2013,10,09,15,06,12.00
2013,10,09,15,07,11.90
2013,10,09,15,08,11.90
2013,10,09,15,09,11.90
2013,10,09,15,10,11.90
2013,10,09,15,11,11.80
2013,10,09,15,12,11.80
2013,10,09,15,13,11.80
2013,10,09,15,14,11.80
2013,10,09,15,15,11.80
2013,10,09,15,16,11.90
2013,10,09,15,17,11.90
2013,10,09,15,18,11.90
2013,10,09,15,19,11.90
2013,10,09,15,20,11.90
2013,10,09,15,21,11.90
2013,10,09,15,22,11.90
2013,10,09,15,23,11.90
2013,10,09,15,24,11.90
2013,10,09,15,25,11.90
2013,10,09,15,26,11.90
2013,10,09,15,27,11.90
2013,10,09,15,28,11.90
2013,10,09,15,29,11.90
2013,10,09,15,30,11.90
2013,10,09,15,31,11.90
2013,10,09,15,32,11.90
2013,10,09,15,33,11.90
2013,10,09,15,34,11.90
2013,10,09,15,35,11.90
2013,10,09,15,36,11.90
2013,10,09,15,37,11.80
2013,10,09,15,38,11.80
2013,10,09,15,39,11.80
2013,10,09,15,40,11.80
2013,10,09,15,41,11.80
2013,10,09,15,42,11.80
2013,10,09,15,43,11.80
2013,10,09,15,44,11.90
2013,10,09,15,45,11.90
2013,10,09,15,46,11.90
2013,10,09,15,47,11.90
2013,10,09,15,48,11.90
2013,10,09,15,49,11.90
2013,10,09,15,50,12.00
2013,10,09,15,51,12.00
2013,10,09,15,52,12.10
2013,10,09,15,53,12.10
2013,10,09,15,54,12.10
2013,10,09,15,55,12.00
2013,10,09,15,56,12.00
2013,10,09,15,57,11.90
2013,10,09,15,58,11.90
2013,10,09,15,59,11.90
2013,10,09,16,00,11.90
2013,10,09,16,01,11.90
2013,10,09,16,02,11.90
2013,10,09,16,03,11.90
2013,10,09,16,04,11.90
2013,10,09,16,05,11.90
2013,10,09,16,06,11.90
2013,10,09,16,07,11.90
2013,10,09,16,08,11.90
2013,10,09,16,09,11.80
2013,10,09,16,10,11.80
2013,10,09,16,11,11.80
2013,10,09,16,12,11.80
2013,10,09,16,13,11.80
2013,10,09,16,14,11.80
2013,10,09,16,15,11.80
2013,10,09,16,16,11.80
2013,10,09,16,17,11.80
2013,10,09,16,18,11.90
2013,10,09,16,19,11.90
2013,10,09,16,20,11.90
2013,10,09,16,21,11.90
2013,10,09,16,22,12.00
2013,10,09,16,23,12.00
2013,10,09,16,24,12.00
2013,10,09,16,25,12.10
2013,10,09,16,26,12.10
2013,10,09,16,27,12.10
2013,10,09,16,28,12.10
2013,10,09,16,29,12.20
2013,10,09,16,30,12.10
2013,10,09,16,31,12.10
2013,10,09,16,32,12.10
2013,10,09,16,33,12.10
2013,10,09,16,34,12.10
2013,10,09,16,35,12.10
2013,10,09,16,36,12.10
2013,10,09,16,37,12.10
2013,10,09,16,38,12.20
2013,10,09,16,39,12.20
2013,10,09,16,40,12.20
2013,10,09,16,41,12.20
2013,10,09,16,42,12.20
2013,10,09,16,43,12.10
2013,10,09,16,44,12.10
2013,10,09,16,45,12.10
2013,10,09,16,46,12.10
2013,10,09,16,47,12.10
2013,10,09,16,48,12.10
2013,10,09,16,49,12.10
2013,10,09,16,50,12.10
2013,10,09,16,51,12.00
2013,10,09,16,52,12.00
2013,10,09,16,53,11.90
2013,10,09,16,54,11.90
2013,10,09,16,55,11.90
2013,10,09,16,56,11.80
2013,10,09,16,57,11.80
2013,10,09,16,58,11.70
2013,10,09,16,59,11.70
2013,10,09,17,00,11.70
2013,10,09,17,01,11.70
2013,10,09,17,02,11.70
2013,10,09,17,03,11.60
2013,10,09,17,04,11.60
2013,10,09,17,05,11.60
2013,10,09,17,06,11.50
2013,10,09,17,07,11.50
2013,10,09,17,08,11.40
2013,10,09,17,09,11.40
2013,10,09,17,10,11.30
2013,10,09,17,11,11.30
2013,10,09,17,12,11.30
2013,10,09,17,13,11.20
2013,10,09,17,14,11.20
2013,10,09,17,15,11.10
2013,10,09,17,16,11.10
2013,10,09,17,17,11.10
2013,10,09,17,18,11.00
2013,10,09,17,19,11.00
2013,10,09,17,20,10.90
2013,10,09,17,21,10.90
2013,10,09,17,22,10.90
2013,10,09,17,23,10.80
2013,10,09,17,24,10.80
2013,10,09,17,25,10.80
2013,10,09,17,26,10.80
2013,10,09,17,27,10.70
2013,10,09,17,28,10.70
2013,10,09,17,29,10.70
2013,10,09,17,30,10.70
2013,10,09,17,31,10.60
2013,10,09,17,32,10.60
2013,10,09,17,33,10.60
2013,10,09,17,34,10.60
2013,10,09,17,35,10.60
2013,10,09,17,36,10.60
2013,10,09,17,37,10.50
2013,10,09,17,38,10.50
2013,10,09,17,39,10.50
2013,10,09,17,40,10.50
2013,10,09,17,41,10.50
2013,10,09,17,42,10.50
2013,10,09,17,43,10.50
2013,10,09,17,44,10.50
2013,10,09,17,45,10.50
2013,10,09,17,46,10.50